CW9414 Weather Reports


time (UTC)temp
F
wind
direction
speed
knots
gust
knots
rain 1hr
in
rain 24hr
in
rain mn
in
humidity
%
barometer
mb
20260905003503 90 140 0.0 0.0 0.00 0.00 0.16 59 1008.3
20260905002503 90 140 0.0 2.6 0.00 0.00 0.16 58 1008.1
20260905001503 91 140 0.0 4.3 0.00 0.00 0.16 57 1008.0
20260905000503 92 140 0.0 2.6 0.00 0.00 0.16 56 1008.0
20260904235503 93 135 0.0 2.6 0.00 0.00 0.16 54 1008.0
20260904234503 93 135 0.0 3.5 0.00 0.00 0.16 52 1008.0
20260904233503 93 134 0.0 0.9 0.00 0.00 0.16 52 1008.0
20260904232503 94 134 0.0 0.0 0.00 0.00 0.16 51 1007.8
20260904231503 95 134 0.0 1.7 0.00 0.00 0.16 50 1008.0
20260904230506 95 196 0.0 2.6 0.00 0.00 0.16 50 1008.0
20260904225503 96 196 0.0 3.5 0.00 0.00 0.16 48 1008.1
20260904224504 96 196 0.0 0.9 0.00 0.00 0.16 48 1008.1
20260904223503 96 196 0.9 2.6 0.00 0.00 0.16 50 1008.1
20260904222503 95 196 0.0 4.3 0.00 0.00 0.16 51 1008.2
20260904221503 95 196 0.0 4.3 0.00 0.00 0.16 52 1008.2
20260904220503 95 228 0.0 1.7 0.00 0.00 0.16 52 1008.2
20260904215503 95 230 0.0 2.6 0.00 0.00 0.16 52 1008.3
20260904214506 95 0 0.0 0.9 0.00 0.00 0.16 55 1008.5
20260904213503 95 0 0.0 1.7 0.00 0.00 0.16 57 1008.5
20260904212503 94 0 0.0 0.9 0.00 0.00 0.16 58 1008.7
20260904211503 94 0 0.0 0.9 0.00 0.00 0.16 59 1008.8
20260904210503 93 355 0.0 1.7 0.00 0.00 0.16 60 1008.8
20260904205503 93 355 0.0 0.9 0.00 0.00 0.16 61 1009.0
20260904204506 92 355 0.0 1.7 0.00 0.00 0.16 65 1009.3
20260904203503 91 355 0.0 0.9 0.00 0.00 0.16 66 1009.3
20260904202503 90 355 0.0 0.0 0.00 0.00 0.16 69 1009.6
20260904201503 89 355 0.0 0.0 0.00 0.00 0.16 72 1009.5
20260904200506 88 355 0.0 1.7 0.00 0.00 0.16 75 1009.5
20260904195503 87 355 0.0 0.9 0.00 0.00 0.16 77 1010.0
20260904194502 86 355 0.0 0.9 0.00 0.00 0.16 82 1009.9
20260904193503 85 355 0.0 0.9 0.00 0.00 0.16 83 1009.9
20260904192502 83 355 0.0 0.0 0.00 0.00 0.16 84 1009.8
20260904191503 82 355 0.0 0.0 0.00 0.00 0.16 83 1010.2
20260904190503 81 355 0.0 0.9 0.00 0.00 0.15 82 1010.2
20260904173451 81 229 0.0 0.0 0.00 0.00 0.15 84 1011.3
20260904172453 81 229 0.0 0.0 0.00 0.00 0.15 83 1011.3
20260904171450 81 229 0.0 0.0 0.00 0.00 0.15 82 1011.3
20260904170450 82 229 0.0 0.0 0.00 0.00 0.15 80 1011.3
20260904165450 82 229 0.0 0.0 0.00 0.00 0.15 80 1011.4
20260904164451 83 229 0.0 0.0 0.00 0.00 0.15 78 1011.3
20260904163450 84 232 0.0 0.9 0.00 0.00 0.15 76 1011.3
20260904162453 85 236 0.0 0.0 0.00 0.00 0.01 75 1011.3
20260904161450 86 236 0.0 2.6 0.00 0.00 0.01 72 1010.8
20260904160450 87 237 0.0 3.5 0.00 0.00 0.00 71 1010.8
20260904155451 87 169 2.6 3.5 0.00 0.00 0.00 72 1010.6
20260904154450 88 159 0.0 3.5 0.00 0.00 0.00 74 1010.3
20260904153450 88 159 0.0 1.7 0.00 0.00 0.00 75 1010.3
20260904152450 87 159 0.0 2.6 0.00 0.00 0.00 79 1010.3
20260904151450 86 159 0.0 1.7 0.00 0.00 0.00 80 1010.3
20260904150450 86 159 0.0 0.9 0.00 0.00 0.00 81 1010.3
20260904145450 86 159 1.7 2.6 0.00 0.00 0.00 84 1010.3
20260904144450 85 54 0.0 0.0 0.00 0.00 0.00 86 1010.2
20260904143453 85 54 0.0 1.7 0.00 0.00 0.00 87 1010.2
20260904142450 84 54 1.7 2.6 0.00 0.00 0.00 89 1010.2
20260904141450 84 54 0.0 0.0 0.00 0.00 0.00 90 1010.2
20260904140450 83 54 0.0 0.0 0.00 0.00 0.00 91 1010.2
20260904135450 83 42 0.0 1.7 0.00 0.00 0.00 92 1010.2
20260904134450 82 42 0.0 1.7 0.00 0.00 0.00 92 1010.2
20260904133450 82 42 0.0 0.0 0.00 0.00 0.00 92 1010.2
20260904132450 82 42 0.0 0.9 0.00 0.00 0.00 92 1009.9
20260904131450 81 42 0.0 0.0 0.00 0.00 0.00 92 1009.7
20260904130450 81 42 0.0 0.0 0.00 0.00 0.00 92 1009.7
20260904125450 80 42 0.0 0.0 0.00 0.00 0.00 92 1009.7
20260904124450 80 42 0.0 0.0 0.00 0.00 0.00 92 1009.5
20260904123453 80 42 0.0 0.0 0.00 0.00 0.00 92 1009.5
20260904122450 80 42 0.0 0.0 0.00 0.00 0.00 91 1009.2
20260904121450 80 42 0.0 0.0 0.00 0.00 0.00 91 1009.1
20260904120453 80 42 0.0 0.0 0.00 0.00 0.00 91 1009.1
20260904115453 80 42 0.0 0.0 0.00 0.00 0.00 91 1009.1
20260904114450 80 42 0.0 0.0 0.00 0.00 0.00 91 1009.1
20260904113449 80 42 0.0 0.0 0.00 0.00 0.00 91 1009.1
20260904112449 80 42 0.0 0.0 0.00 0.00 0.00 91 1009.1
20260904111450 80 42 0.0 0.0 0.00 0.00 0.00 91 1009.1
20260904110450 80 42 0.0 0.0 0.00 0.00 0.00 91 1009.1
20260904105453 80 42 0.0 0.0 0.00 0.00 0.00 91 1008.9
20260904104449 80 42 0.0 0.0 0.00 0.00 0.00 90 1008.7
20260904103453 80 42 0.0 0.0 0.00 0.00 0.00 90 1008.7
20260904102450 80 42 0.0 0.0 0.00 0.00 0.00 90 1008.6
20260904101450 80 42 0.0 0.0 0.00 0.00 0.00 90 1008.6
20260904100449 80 42 0.0 0.0 0.00 0.00 0.00 90 1008.6
20260904095450 80 42 0.0 0.0 0.00 0.00 0.00 90 1008.6
20260904094450 80 42 0.0 0.0 0.00 0.00 0.00 90 1008.5
20260904093450 80 42 0.0 0.0 0.00 0.00 0.00 90 1008.5
20260904092449 80 42 0.0 0.0 0.00 0.00 0.00 90 1008.5
20260904091450 80 42 0.0 0.0 0.00 0.00 0.00 90 1008.5
20260904090449 80 42 0.0 0.0 0.00 0.00 0.00 90 1008.5
20260904085449 80 42 0.0 0.0 0.00 0.00 0.00 90 1008.6
20260904084449 80 42 0.0 0.0 0.00 0.00 0.00 89 1008.6
20260904083450 80 42 0.0 0.0 0.00 0.00 0.00 89 1008.6
20260904082449 80 42 0.0 0.0 0.00 0.00 0.00 89 1008.6
20260904081453 81 42 0.0 0.0 0.00 0.00 0.00 89 1008.7
20260904080450 81 42 0.0 0.0 0.00 0.00 0.00 89 1008.7
20260904075453 81 42 0.0 0.0 0.00 0.00 0.00 89 1008.7
20260904074449 81 42 0.0 0.0 0.00 0.00 0.00 89 1008.8
20260904073450 81 42 0.0 0.0 0.00 0.00 0.00 89 1008.8
20260904072450 81 42 0.0 0.0 0.00 0.00 0.00 89 1008.8
20260904071450 81 42 0.0 0.0 0.00 0.00 0.00 89 1009.0
20260904070450 81 42 0.0 0.0 0.00 0.00 0.00 89 1009.0
20260904065449 81 42 0.0 0.0 0.00 0.00 0.00 89 1009.1
20260904064450 81 42 0.0 0.0 0.00 0.00 0.00 89 1009.1
20260904063449 81 42 0.0 0.0 0.00 0.00 0.00 89 1009.1
20260904062450 81 42 0.0 0.0 0.00 0.00 0.00 89 1009.1
20260904061450 81 42 0.0 0.0 0.00 0.00 0.00 89 1009.1
20260904060449 81 42 0.0 0.0 0.00 0.00 0.00 89 1009.1
20260904055450 81 42 0.0 1.7 0.00 0.00 0.00 89 1009.1
20260904054450 81 42 0.0 1.7 0.00 0.00 0.00 89 1009.0
20260904053453 81 41 0.0 0.0 0.00 0.00 0.00 89 1009.0
20260904052450 81 41 0.0 0.0 0.00 0.00 0.00 89 1009.0
20260904051450 81 41 0.0 0.0 0.00 0.00 0.00 89 1009.1
20260904050453 81 41 0.0 0.9 0.00 0.00 0.50 89 1009.1
20260904045449 81 41 0.0 1.7 0.00 0.00 0.50 89 1009.1
20260904044449 81 40 0.0 0.0 0.00 0.00 0.50 89 1009.0
20260904043449 81 40 0.0 0.0 0.00 0.00 0.50 89 1009.0
20260904042449 81 40 0.0 0.0 0.00 0.00 0.50 89 1008.9
20260904041449 81 40 0.0 0.0 0.00 0.00 0.50 89 1009.0
20260904040449 81 40 0.0 1.7 0.00 0.00 0.50 90 1009.0
20260904035449 81 18 0.0 0.0 0.00 0.00 0.50 90 1009.1
20260904034450 81 18 0.0 0.9 0.00 0.00 0.50 90 1009.1
20260904033450 81 18 0.0 0.9 0.00 0.00 0.50 90 1009.1
20260904032453 81 18 0.0 0.0 0.00 0.00 0.50 90 1009.1
20260904031453 81 18 0.0 0.9 0.00 0.00 0.50 90 1009.1
20260904030450 81 18 0.0 0.9 0.00 0.00 0.50 90 1009.1
20260904025450 81 18 0.0 0.9 0.00 0.00 0.50 89 1009.0
20260904024449 80 17 0.0 0.0 0.00 0.00 0.50 89 1008.6
20260904023452 80 18 0.0 0.0 0.00 0.00 0.50 89 1008.6
20260904022452 80 18 0.0 0.0 0.00 0.00 0.50 88 1008.6
20260904021452 80 17 0.0 0.0 0.00 0.00 0.50 88 1008.5
20260904020452 80 18 0.0 0.0 0.00 0.00 0.50 88 1008.5
20260904015449 80 18 0.0 0.0 0.00 0.00 0.50 87 1008.2
20260904014449 80 18 0.0 0.0 0.00 0.00 0.50 87 1008.1
20260904013449 80 18 0.0 0.0 0.00 0.00 0.50 87 1008.1
20260904012449 80 18 0.0 0.0 0.00 0.00 0.50 87 1008.1
20260904011450 81 18 0.0 0.0 0.00 0.00 0.50 87 1008.1
20260904010449 81 18 0.0 0.0 0.00 0.00 0.50 87 1008.1
20260904005449 81 18 0.0 0.0 0.00 0.00 0.50 87 1008.0
20260904004449 81 18 0.0 0.0 0.00 0.00 0.50 88 1008.1